Home > Weather > Wipperfürth > Past weeks

Flag for Germany Past Weather in Wipperfürth, North Rhine-Westphalia, Germany — Yesterday and Last 2 Weeks

Now
63 °F

Passing clouds.


Feels Like: 63 °F
Forecast: 57 / 66 °F
Wind: 5 mph from North

Location: Koeln / Bonn

Current Time: May 30, 2016 at 1:03:22 AM

Latest Report: May 30, 2016 at 12:20 AM


Visibility: N/A

Pressure: 29.71 "Hg

Humidity: 94%

Dew Point: 61 °F

Location of WipperfürthLocation

Past Weather in Wipperfürth — Graph

°F

Wipperfürth Temperature Yesterday

Maximum temperature yesterday: 75 °F (at 1:50 PM)
Minimum temperature yesterday: 57 °F (at 1:50 AM)
Average temperature yesterday: 66 °F

High & Low Weather Summary for the Past Weeks

 TemperatureHumidityPressure
High77 °F (May 28, 4:20 PM)100% (May 23, 3:50 PM)30.12 "Hg (May 23, 3:50 PM)
Low43 °F (May 15, 4:20 AM)34% (May 17, 3:20 PM)29.68 "Hg (May 19, 1:20 AM)
Average58 °F72%29.95 "Hg
* Reported May 15 12:20 AM — May 30 12:20 AM, Wipperfürth, Weather by CustomWeather, © 2016

Note: Actual official high and low records may vary slightly from our data, if they occured in-between our weather recording intervals... More about our weather records

Advertising

Wipperfürth Weather History for the Previous 24 Hours

Scroll right to see more
 ConditionsComfort  
Time TempWeatherWind HumidityBarometerVisibility
12:20 AM
Mon, May 30
63 °FPassing clouds.5 mph94%29.71 "HgN/A
11:20 PM
Sun, May 29
64 °FLight rain. Clear.7 mph88%29.71 "HgN/A
10:50 PM64 °FPassing clouds.5 mph83%29.71 "HgN/A
10:20 PM64 °FPartly sunny.6 mph88%29.68 "HgN/A
9:50 PM66 °FSprinkles. Broken clouds.6 mph83%29.68 "HgN/A
9:20 PM66 °FSprinkles. Broken clouds.6 mph83%29.68 "HgN/A
8:50 PM68 °FBroken clouds.10 mph78%29.68 "HgN/A
8:20 PM70 °FBroken clouds.10 mph73%29.68 "HgN/A
7:50 PM70 °FScattered clouds.8 mph73%29.68 "HgN/A
7:20 PM70 °FPartly sunny.9 mph73%29.68 "HgN/A
6:50 PM70 °FPartly sunny.9 mph73%29.68 "HgN/A
6:20 PM70 °FBroken clouds.9 mph73%29.68 "HgN/A
5:50 PM72 °FBroken clouds.10 mph69%29.68 "HgN/A
5:20 PM73 °FBroken clouds.12 mph65%29.68 "HgN/A
4:50 PM75 °FScattered showers. Broken clouds.9 mph61%29.68 "HgN/A
4:20 PM72 °FScattered showers. Broken clouds.8 mph65%29.68 "HgN/A
3:50 PM72 °FScattered showers. Broken clouds.7 mph65%29.68 "HgN/A
3:20 PM73 °FBroken clouds.6 mph61%29.68 "HgN/A
2:50 PM73 °FBroken clouds.6 mph57%29.68 "HgN/A
2:20 PM75 °FBroken clouds.7 mph54%29.68 "HgN/A
1:50 PM75 °FScattered clouds.6 mph54%29.68 "HgN/A
1:20 PM72 °FScattered clouds.6 mph57%29.71 "HgN/A
12:50 PM70 °FPartly sunny.7 mph64%29.71 "HgN/A
12:20 PM70 °FBroken clouds.6 mph64%29.71 "HgN/A
11:50 AM70 °FBroken clouds.7 mph69%29.71 "HgN/A
11:20 AM70 °FBroken clouds.8 mph64%29.71 "HgN/A
10:50 AM70 °FBroken clouds.8 mph69%29.71 "HgN/A
10:20 AM68 °FBroken clouds.7 mph73%29.71 "HgN/A
9:50 AM66 °FPartly sunny.5 mph73%29.71 "HgN/A
9:20 AM66 °FPartly sunny.6 mph73%29.71 "HgN/A
8:50 AM66 °FSunny.2 mph73%29.71 "Hg10 mi
8:20 AM64 °FPassing clouds.3 mph73%29.71 "HgN/A
7:50 AM63 °FSunny.2 mph77%29.74 "Hg10 mi
7:20 AM59 °FSunny.2 mph88%29.74 "Hg10 mi
6:50 AM59 °FSunny.1 mph88%29.74 "Hg10 mi
6:20 AM57 °FClear.1 mph94%29.74 "Hg10 mi
5:50 AM57 °FClear.1 mph94%29.77 "Hg10 mi
5:20 AM57 °FClear.2 mph94%29.77 "Hg10 mi
4:50 AM57 °FClear.2 mph94%29.77 "Hg10 mi
4:20 AM57 °FClear.3 mph94%29.77 "Hg10 mi
3:50 AM59 °FPassing clouds.3 mph88%29.77 "HgN/A
3:20 AM59 °FClear.5 mph88%29.77 "Hg10 mi
2:50 AM61 °FLight rain. Clear.6 mph83%29.77 "HgN/A
2:20 AM59 °FClear.5 mph82%29.80 "Hg10 mi
1:50 AM57 °FClear.3 mph88%29.80 "Hg10 mi
1:20 AM59 °FPassing clouds.3 mph88%29.83 "HgN/A
Weather by CustomWeather, © 2016

See weather overviewHow to use our weather pages